Location: Colonia Mina de C?rbuni
(46.1667°N, 22.7167°E)
Time: 15:34:22
(UTC+00:00)

Courier 1B - Pass Details

Date: 01 May 2024
Orbit: 962 x 1208 km, 28.3° (Epoch: 23 May)

Event Time Altitude Azimuth Distance (km) Brightness Sun altitude
Rises 23:29:54 0° 249° (WSW) 4,107 - -26.7°
Reaches altitude 10° 23:34:11 10° 229° (SW) 3,131 - -26.5°
Maximum altitude 23:38:20 15° 196° (SSW) 2,720 - -26.3°
Drops below altitude 10° 23:42:26 10° 163° (SSE) 3,075 - -26.0°
Sets 23:46:35 0° 142° (SE) 3,993 - -25.8°
